AUA7 LOWW-VTBS

Flight info

Callsign AUA7
Flight time N/A
Altitude 37000
Route ASPI2C/29 ADAMA DCT VEDER DCT ALAMU DCT EPARI DCT BUDOP DCT UDROS UN743 GAKSU UT310 SIN UN644 KARDE UL851 TBN UM11 REBLO M11 LUSAL M747 SULEL N449 DUKAN B449 ETRAP/N0468F390 B449 RANAH L750 MERUN G452 LKN R460 BBN/N0478F410 P646 JJS Z12 DOPID P646 PTN N895 BETNO G463 TARED DCT WILLA WILLA1C
Aircraft B772/H-SDE2E3FGHIJ5LORVWXY/LB1D1

Departure

Time 2026-04-24 19:42
Airport Vienna International Airport (LOWW)

Arrival

Time N/A
Airport Suvarnabhumi Airport (VTBS)
Time Latitude Longitude Altitude Speed Heading
2026-04-24 19:00 48.11705 16.56816 610 ft 0 kts 27°
2026-04-24 19:29 48.11694 16.56808 610 ft 2 kts 27°
2026-04-24 19:29 48.11681 16.56798 610 ft 2 kts 27°
2026-04-24 19:29 48.11667 16.56788 611 ft 2 kts 27°
2026-04-24 19:30 48.11653 16.56777 611 ft 2 kts 37°
2026-04-24 19:30 48.11644 16.56761 610 ft 2 kts 67°
2026-04-24 19:30 48.11641 16.56739 610 ft 2 kts 92°
2026-04-24 19:30 48.11643 16.56719 609 ft 0 kts 115°
2026-04-24 19:31 48.11645 16.56713 609 ft 0 kts 116°
2026-04-24 19:35 48.11643 16.56718 609 ft 1 kts 116°
2026-04-24 19:35 48.11636 16.56739 610 ft 3 kts 116°
2026-04-24 19:35 48.11617 16.56800 611 ft 10 kts 115°
2026-04-24 19:36 48.11570 16.56950 612 ft 20 kts 116°
2026-04-24 19:36 48.11505 16.57146 612 ft 21 kts 116°
2026-04-24 19:36 48.11449 16.57318 609 ft 11 kts 116°
2026-04-24 19:36 48.11386 16.57373 608 ft 8 kts 188°
2026-04-24 19:37 48.11371 16.57367 608 ft 0 kts 200°
2026-04-24 19:37 48.11371 16.57366 608 ft 0 kts 200°
2026-04-24 19:37 48.11346 16.57352 608 ft 9 kts 203°
2026-04-24 19:37 48.11268 16.57296 609 ft 12 kts 207°
2026-04-24 19:38 48.11195 16.57329 609 ft 13 kts 127°
2026-04-24 19:38 48.11143 16.57480 606 ft 19 kts 117°
2026-04-24 19:38 48.11091 16.57625 604 ft 11 kts 136°
2026-04-24 19:38 48.11038 16.57637 605 ft 4 kts 191°
2026-04-24 19:39 48.11036 16.57637 605 ft 0 kts 193°
2026-04-24 19:40 48.11034 16.57636 605 ft 3 kts 195°
2026-04-24 19:40 48.10963 16.57590 606 ft 16 kts 209°
2026-04-24 19:41 48.10939 16.57468 607 ft 14 kts 289°
2026-04-24 19:41 48.11010 16.57240 610 ft 43 kts 296°
2026-04-24 19:41 48.11245 16.56521 604 ft 108 kts 297°
2026-04-24 19:41 48.11665 16.55233 593 ft 161 kts 297°
2026-04-24 19:42 48.12166 16.53705 1040 ft 165 kts 297°
2026-04-24 19:42 48.12530 16.52029 1571 ft 175 kts 275°
2026-04-24 19:42 48.12368 16.50253 2123 ft 179 kts 255°
2026-04-24 19:42 48.11663 16.48593 2326 ft 202 kts 228°
2026-04-24 19:43 48.10375 16.47519 2464 ft 230 kts 195°
2026-04-24 19:43 48.08686 16.47568 2693 ft 253 kts 174°
2026-04-24 19:43 48.06893 16.48114 2945 ft 272 kts 170°
2026-04-24 19:43 48.05077 16.49069 3343 ft 284 kts 152°
2026-04-24 19:44 48.03382 16.50589 3835 ft 291 kts 149°
2026-04-24 19:44 48.01687 16.52179 4564 ft 287 kts 149°
2026-04-24 19:44 47.99974 16.53770 5138 ft 291 kts 149°
2026-04-24 19:44 47.98249 16.55380 5674 ft 296 kts 146°
2026-04-24 19:45 47.96831 16.57576 6166 ft 300 kts 120°
2026-04-24 19:45 47.96145 16.60519 6660 ft 300 kts 92°
2026-04-24 19:45 47.96343 16.63526 7182 ft 294 kts 68°
2026-04-24 19:45 47.97021 16.66390 8001 ft 289 kts 64°
2026-04-24 19:46 47.97712 16.69185 8661 ft 291 kts 65°
2026-04-24 19:46 47.98386 16.72028 9284 ft 293 kts 65°
2026-04-24 19:46 47.99056 16.74923 9818 ft 296 kts 65°
2026-04-24 19:46 47.99637 16.77874 10278 ft 304 kts 74°
2026-04-24 19:47 47.99890 16.81084 10490 ft 322 kts 81°
2026-04-24 19:47 48.00068 16.84495 10660 ft 338 kts 81°
2026-04-24 19:47 48.00258 16.88046 10809 ft 352 kts 81°
2026-04-24 19:47 48.00465 16.91775 10994 ft 366 kts 81°
2026-04-24 19:48 48.00679 16.95588 11224 ft 379 kts 81°
2026-04-24 19:48 48.00901 16.99559 11602 ft 388 kts 82°
2026-04-24 19:48 48.00829 17.07662 12652 ft 397 kts 93°
2026-04-24 19:49 48.00203 17.15846 13863 ft 403 kts 93°
2026-04-24 19:49 47.99553 17.24241 15029 ft 410 kts 93°
2026-04-24 19:50 47.98174 17.36927 16795 ft 423 kts 104°
2026-04-24 19:50 47.97281 17.41067 17343 ft 427 kts 105°
2026-04-24 19:51 47.95415 17.49559 18452 ft 433 kts 105°
2026-04-24 19:51 47.94477 17.53820 18989 ft 436 kts 105°
2026-04-24 19:52 47.92577 17.62429 20039 ft 443 kts 105°
2026-04-24 19:52 47.91605 17.66823 20539 ft 446 kts 106°
2026-04-24 19:52 47.90640 17.71176 21040 ft 449 kts 106°
2026-04-24 19:52 47.89652 17.75627 21510 ft 452 kts 106°
2026-04-24 19:53 47.88656 17.80105 21951 ft 456 kts 106°
2026-04-24 19:53 47.87650 17.84615 22378 ft 460 kts 106°
2026-04-24 19:53 47.85631 17.93639 23297 ft 465 kts 106°
2026-04-24 19:54 47.84561 17.98183 23757 ft 468 kts 110°
2026-04-24 19:54 47.83223 18.02651 24160 ft 473 kts 112°
2026-04-24 19:54 47.81832 18.07110 24581 ft 476 kts 112°
2026-04-24 19:54 47.80444 18.11542 24986 ft 478 kts 112°
2026-04-24 19:55 47.79488 18.14591 25283 ft 480 kts 112°
2026-04-24 19:55 47.77611 18.20568 25833 ft 483 kts 112°
2026-04-24 19:55 47.76184 18.25110 26240 ft 485 kts 112°
2026-04-24 19:55 47.74772 18.29689 26622 ft 486 kts 109°
2026-04-24 19:56 47.73748 18.34407 26924 ft 486 kts 99°
2026-04-24 19:56 47.73195 18.39366 27243 ft 485 kts 93°
2026-04-24 19:56 47.72815 18.44298 27588 ft 487 kts 92°
2026-04-24 19:56 47.72437 18.49332 27923 ft 490 kts 92°
2026-04-24 19:57 47.72052 18.54414 28296 ft 491 kts 92°
2026-04-24 19:57 47.71666 18.59455 28614 ft 493 kts 92°
2026-04-24 19:57 47.71277 18.64500 28922 ft 495 kts 92°
2026-04-24 19:57 47.70881 18.69596 29214 ft 497 kts 93°
2026-04-24 19:58 47.70486 18.74641 29574 ft 497 kts 93°
2026-04-24 19:58 47.70084 18.79725 30042 ft 495 kts 93°
2026-04-24 19:58 47.69685 18.84743 30531 ft 493 kts 93°
2026-04-24 19:58 47.69305 18.89502 30915 ft 491 kts 93°
2026-04-24 19:59 47.68782 18.94496 31236 ft 495 kts 99°
2026-04-24 19:59 47.67764 18.99373 31544 ft 500 kts 108°
2026-04-24 19:59 47.66267 19.04003 31900 ft 502 kts 115°
2026-04-24 19:59 47.64572 19.08529 32329 ft 500 kts 116°
2026-04-24 20:00 47.62864 19.13024 32706 ft 499 kts 116°
2026-04-24 20:00 47.61168 19.17477 33019 ft 499 kts 115°
2026-04-24 20:00 47.59466 19.21939 33305 ft 500 kts 115°
2026-04-24 20:00 47.57745 19.26442 33597 ft 500 kts 115°
2026-04-24 20:01 47.56042 19.30892 33977 ft 498 kts 115°
2026-04-24 20:01 47.54342 19.35323 34366 ft 496 kts 115°
2026-04-24 20:01 47.52631 19.39778 34772 ft 494 kts 115°
2026-04-24 20:01 47.50934 19.44189 35135 ft 493 kts 115°
2026-04-24 20:02 47.49801 19.47132 35343 ft 493 kts 115°
2026-04-24 20:02 47.47541 19.52991 35725 ft 493 kts 115°
2026-04-24 20:02 47.45842 19.57385 35999 ft 493 kts 115°
2026-04-24 20:02 47.44150 19.61755 36308 ft 492 kts 115°
2026-04-24 20:03 47.42454 19.66128 36618 ft 490 kts 116°
2026-04-24 20:03 47.40751 19.70513 36896 ft 489 kts 116°
2026-04-24 20:03 47.39073 19.74824 37012 ft 490 kts 115°
2026-04-24 20:04 47.35667 19.83557 37012 ft 490 kts 116°
2026-04-24 20:04 47.32256 19.92277 37012 ft 490 kts 116°
2026-04-24 20:05 47.28849 20.00956 37006 ft 490 kts 116°
2026-04-24 20:05 47.25427 20.09644 37005 ft 489 kts 115°
2026-04-24 20:06 47.22047 20.18201 37006 ft 490 kts 116°
2026-04-24 20:06 47.18720 20.26595 37004 ft 490 kts 116°
2026-04-24 20:07 47.15924 20.33629 37010 ft 488 kts 116°
2026-04-24 20:07 47.11946 20.43607 37008 ft 489 kts 116°
2026-04-24 20:08 47.08535 20.52135 37008 ft 489 kts 115°
2026-04-24 20:08 47.05172 20.60515 37008 ft 488 kts 115°
2026-04-24 20:09 47.01699 20.69143 36998 ft 490 kts 116°
2026-04-24 20:09 46.98357 20.77420 36999 ft 490 kts 116°
2026-04-24 20:10 46.94846 20.86088 37001 ft 490 kts 116°
2026-04-24 20:10 46.91352 20.94684 36997 ft 490 kts 116°
2026-04-24 20:11 46.87863 21.03244 36990 ft 489 kts 116°
2026-04-24 20:11 46.84386 21.11749 36993 ft 489 kts 116°
2026-04-24 20:12 46.80904 21.20237 37001 ft 489 kts 116°
2026-04-24 20:12 46.77377 21.28810 37002 ft 489 kts 116°
2026-04-24 20:13 46.73908 21.37216 37010 ft 488 kts 116°
2026-04-24 20:13 46.70415 21.45653 37013 ft 489 kts 116°
2026-04-24 20:14 46.66979 21.54229 37022 ft 485 kts 113°
2026-04-24 20:14 46.63859 21.62811 37022 ft 487 kts 113°
2026-04-24 20:15 46.61394 21.69544 37027 ft 488 kts 114°
2026-04-24 20:15 46.57710 21.79537 37027 ft 487 kts 114°
2026-04-24 20:16 46.54275 21.88801 37026 ft 487 kts 114°
2026-04-24 20:16 46.51069 21.97408 37031 ft 486 kts 114°
2026-04-24 20:17 46.47866 22.05974 37029 ft 487 kts 114°
2026-04-24 20:17 46.43062 22.18768 37039 ft 486 kts 114°
2026-04-24 20:18 46.39862 22.27255 37037 ft 485 kts 114°
2026-04-24 20:18 46.38273 22.31460 36672 ft 485 kts 114°
2026-04-24 20:18 46.36660 22.35718 36848 ft 483 kts 114°
2026-04-24 20:19 46.35747 22.38128 37014 ft 481 kts 114°
2026-04-24 20:19 46.34272 22.42016 37034 ft 483 kts 114°
2026-04-24 20:20 46.28696 22.56664 37044 ft 489 kts 114°
2026-04-24 20:21 46.22332 22.73279 37046 ft 489 kts 115°
2026-04-24 20:21 46.20080 22.79134 37044 ft 488 kts 115°